This demonstration page uses our WeatherBlox Daily Observations layout. Learn more.

41.55636, -103.73856

Hourly Observations for May 28, 2018

Temp ( °F °C ) Dew Point ( °F °C ) Humidity (%) Winds ( mph kmh ) Pressure ( in mb ) Visibility ( mi km ) Precip ( " mm )
12:53 am 00:53 Mostly Clear 59 15 57 13.9 93 93 SSE 14 22 29.88 1012 10 16.09344 0.001 0.001
1:34 am 01:34 Mostly Cloudy with Light Rain 59 15 57 13.9 93 93 ENE 18 30 29.77 1008 10 16.09344 0.001 0.001
1:53 am 01:53 Partly Cloudy 61 16.1 57 13.9 87 87 undefined N/A 29.8 1009 10 16.09344 0.001 0.001
2:18 am 02:18 Mostly Cloudy 60 15.6 58 14.4 93 93 WSW 8 13 29.91 1013 10 16.09344 0 0
2:53 am 02:53 Cloudy 60 15.6 57 13.9 90 90 WSW 7 11 29.91 1013 10 16.09344 0 0
3:12 am 03:12 Cloudy with Light Rain 59 15 57 14 94 94 N 12 19 29.91 1013 9 14.484096 0 0
3:53 am 03:53 Partly Cloudy 58 14.4 58 14.4 100 100 SSW 8 13 29.85 1011 10 16.09344 0.01 0.254
4:10 am 04:10 Mostly Cloudy 59 15 57 14 94 94 SW 8 13 29.91 1013 10 16.09344 0 0
4:53 am 04:53 Mostly Cloudy 58 14.4 57 13.9 97 97 SW 3 6 29.88 1012 10 16.09344 0 0
5:04 am 05:04 Mostly Cloudy 58 14.4 57 13.9 97 97 SSE 3 6 29.88 1012 10 16.09344 0 0
5:53 am 05:53 Sunny 56 13.3 56 13.3 100 100 SE 3 6 29.85 1011 10 16.09344 0 0
6:53 am 06:53 Mostly Sunny 59 15 58 14.4 96 96 SE 5 7 29.85 1011 10 16.09344 0 0
7:53 am 07:53 Cloudy 61 16.1 57 13.9 87 87 WSW 3 6 29.91 1013 10 16.09344 0 0
8:53 am 08:53 Cloudy 62 16.7 58 14.4 86 86 Calm 29.94 1014 10 16.09344 0 0
9:53 am 09:53 Partly Cloudy 67 19.4 60 15.6 79 79 E 7 11 29.91 1013 10 16.09344 0 0
10:53 am 10:53 Sunny 69 20.6 57 13.9 66 66 N 5 7 29.88 1012 10 16.09344 0 0
11:53 am 11:53 Mostly Sunny 71 21.7 59 15 66 66 NNE 5 7 29.85 1011 10 16.09344 0 0
12:53 pm 12:53 Partly Cloudy 74 23.3 59 15 60 60 N 7 11 29.83 1010 10 16.09344 0 0
1:53 pm 13:53 Mostly Cloudy 74 23.3 60 15.6 62 62 E 8 13 29.83 1010 10 16.09344 0 0
2:53 pm 14:53 Cloudy 73 22.8 62 16.7 69 69 ESE 15 24 29.8 1009 10 16.09344 0 0
3:53 pm 15:53 Cloudy 67 19.4 64 17.8 91 91 E 15 24 29.83 1010 10 16.09344 0 0
4:05 pm 16:05 Cloudy 67 19.4 64 17.8 91 91 ESE 18 30 29.74 1007 10 16.09344 0 0
4:30 pm 16:30 Cloudy with Light Rain 66 19 64 18 94 94 ESE 13 20 29.77 1008 10 16.09344 0 0
4:42 pm 16:42 Cloudy 66 19 64 18 94 94 E 13 20 29.77 1008 10 16.09344 0 0
4:53 pm 16:53 Cloudy with Light Rain 66 18.9 64 17.8 93 93 E 10 17 29.8 1009 8 12.874752 0.001 0.001
5:08 pm 17:08 Cloudy with Light Rain 66 19 64 18 94 94 E 12 19 29.71 1006 10 16.09344 0 0
5:53 pm 17:53 Cloudy with Light Rain 66 18.9 64 17.8 93 93 E 12 19 29.77 1008 10 16.09344 0.01 0.254
6:43 pm 18:43 Cloudy 66 18.9 65 18.3 96 96 ENE 12 19 29.74 1007 10 16.09344 0.001 0.001
6:53 pm 18:53 Cloudy with Light Rain 66 18.9 65 18.3 96 96 E 10 17 29.77 1008 10 16.09344 0.001 0.001
7:07 pm 19:07 Cloudy 66 18.9 65 18.3 96 96 ESE 9 15 29.74 1007 10 16.09344 0.001 0.001
7:27 pm 19:27 Mostly Cloudy with Nearby Thunderstorms 66 18.9 65 18.3 96 96 S 12 19 29.77 1008 10 16.09344 0.001 0.001
7:36 pm 19:36 Windy with Storms Likely 60 15.6 54 12.2 80 80 SW 23 37 29.8 1009 10 16.09344 0.001 0.001
7:53 pm 19:53 Cloudy with Thunderstorms 56 13.3 55 12.8 97 97 SW 15 24 29.83 1010 5 8.04672 0.04 1.016
8:35 pm 20:35 Cloudy with Nearby Thunderstorms 57 13.9 56 13.3 96 96 SW 15 24 29.85 1011 4 6.437376 0.2 5.08
8:53 pm 20:53 Cloudy with Nearby Thunderstorms 56 13.3 56 13.3 100 100 WSW 8 13 29.88 1012 4 6.437376 0.29 7.366
9:13 pm 21:13 Cloudy with Light Rain 56 13.3 56 13.3 100 100 N 10 17 29.83 1010 9 14.484096 0.06 1.524
9:53 pm 21:53 Cloudy with Light Rain 57 13.9 56 13.3 96 96 N 14 22 29.83 1010 10 16.09344 0.06 1.524
10:53 pm 22:53 Clear 56 13.3 56 13.3 100 100 W 8 13 29.83 1010 10 16.09344 0.001 0.001
11:53 pm 23:53 Clear 56 13.3 56 13.3 100 100 WSW 7 11 29.8 1009 10 16.09344 0 0

Powered by AerisWeather